{"data":{"norad_id":67087,"epoch":"2026-05-25T03:55:30.925632Z","epoch_age_seconds":57938,"freshness":"FRESH","line1":"1 67087U 25298N   26145.16355238 -.00000798  00000+0 -59093-4 0  9990","line2":"2 67087  70.0012 181.6031 0004167 268.9517  91.1164 14.98326972 24678","mean_motion":14.98326972,"eccentricity":0.0004167,"inclination_deg":70.0012,"raan_deg":181.6031,"arg_perigee_deg":268.9517,"mean_anomaly_deg":91.1164,"bstar":-5.9093e-5,"rev_number":2467,"period_min":96.107193350318,"perigee_km":569.16910552083,"apogee_km":574.96140407998,"semimajor_km":6950.2022548004,"source":"CELESTRAK","updated_at":"2026-05-25T13:38:21.468526Z"}}